Wind_Speed
18 19 20 21 20 20 21 22 22 22 22 23 23 24 25 24 24 24 24 24 24 25 26 26 27 27 27 28 29 29 30 31 31 31 32 32 32 33
19 20 21 22 22 21 22 23 23 23 23 24 25 25 25 24 26 26 26 26 26 27 27 28 28 29 29 30 31 31 31 31 32 33 34 35 35 35
17 18 18 19 20 22 23 23 23 23 24 24 24 24 25 25 26 26 27 27 28 28 28 29 29 30 31 32 32 32 32 34 35 35 37 37 37 37
16 17 18 19 20 21 21 22 23 23 23 23 24 25 26 26 26 27 27 28 29 29 29 30 30 30 31 32 33 33 34 35 36 37 37 37 37 37
16 17 17 18 19 20 21 21 22 23 23 24 24 25 26 27 28 27 27 27 29 29 29 30 31 32 32 33 33 34 35 36 37 38 38 37 37 37
17 17 17 18 19 20 20 20 21 22 23 23 24 25 26 27 28 28 28 29 29 30 30 31 31 32 33 34 34 35 36 37 38 39 39 38 39 39
16 17 17 17 18 19 19 20 21 22 22 23 25 26 27 27 28 29 29 29 30 31 32 32 33 34 35 35 35 36 36 37 38 39 40 40 40 40
17 17 18 17 18 19 19 20 21 22 23 25 26 26 26 28 29 30 30 30 31 32 33 33 34 35 37 37 37 37 37 37 37 38 39 40 40 40
17 17 18 19 19 20 21 22 22 23 24 25 25 26 27 29 30 30 31 31 32 33 33 34 34 35 35 36 36 36 37 36 37 37 38 38 39 39
18 18 18 19 19 21 22 22 23 24 25 26 27 27 28 28 29 30 31 32 32 33 34 34 34 35 36 36 36 36 35 36 36 36 35 36 35 36
19 19 20 20 21 22 22 23 24 24 26 27 28 28 29 29 29 30 31 32 33 33 34 34 34 34 35 35 35 35 35 36 35 35 35 34 35 36
20 21 22 22 23 23 24 25 25 26 27 27 28 29 30 30 31 31 32 33 33 33 33 34 34 34 34 34 35 35 35 35 35 35 35 36 36 37
21 22 22 23 24 25 25 26 27 27 27 28 29 29 30 30 31 32 32 33 33 33 34 33 33 33 34 34 35 35 36 36 36 36 37 37 38 38
22 23 24 25 26 26 27 27 28 28 28 29 30 30 31 31 32 32 33 33 33 33 33 33 34 34 34 35 35 36 37 37 37 37 38 38 38 38
24 25 26 27 27 28 28 28 29 29 30 30 31 32 32 32 32 33 33 34 34 35 35 35 35 35 35 35 36 36 36 37 37 37 37 37 38 38
25 26 27 28 28 28 28 29 30 30 31 31 32 33 33 34 34 34 34 35 35 35 36 36 36 36 36 36 36 36 36 36 36 37 37 36 36 36
27 27 28 28 29 29 29 30 31 32 32 33 34 34 35 35 35 35 35 35 36 36 35 35 36 36 36 36 36 36 36 36 36 36 35 35 34 34
27 28 29 29 30 30 30 31 32 33 34 34 35 35 36 36 36 36 36 36 36 35 35 35 34 35 35 35 35 34 34 35 34 34 33 32 32 31
29 29 30 31 31 31 32 33 34 34 34 34 34 35 35 35 36 36 36 35 35 35 35 35 35 34 34 33 33 33 32 32 32 32 31 31 31 30
30 31 31 32 32 33 34 34 34 35 35 35 35 35 35 35 36 35 35 35 35 35 34 34 34 33 32 31 31 31 31 30 30 29 29 29 29 29
31 32 32 33 34 34 34 34 35 35 35 35 36 36 36 36 35 35 34 34 33 33 33 32 32 31 31 30 29 29 28 28 28 28 28 27 27 27
32 33 34 34 34 34 34 35 35 35 36 36 36 36 36 35 34 34 33 33 32 31 31 30 29 29 28 28 27 27 26 25 25 25 25 25 25 25
33 34 34 35 34 34 35 35 36 36 36 36 35 35 34 34 33 32 31 30 30 29 29 28 27 27 26 26 26 25 24 24 24 24 24 24 25 25
Wind_Direction
272 272 272 273 274 275 277 278 278 279 281 281 281 282 280 280 282 283 284 284 284 285 282 281 281 281 280 279 279 279 278 277 277 278 277 276 275 274
277 277 277 276 274 275 276 278 279 279 280 281 282 282 281 283 284 284 283 284 284 284 283 281 281 283 282 281 280 279 278 279 279 278 277 276 276 276
284 285 283 281 280 279 279 279 280 281 281 280 282 282 282 283 283 283 283 285 285 284 282 282 283 283 282 281 281 280 278 278 279 279 278 277 275 275
289 291 291 289 287 286 283 282 283 284 284 284 284 284 285 285 287 289 288 286 286 285 284 284 284 284 284 283 282 280 280 280 280 280 280 278 276 275
292 290 290 290 290 289 287 287 287 286 286 286 285 287 288 289 291 291 290 290 288 286 286 285 285 284 284 284 282 281 281 281 281 281 281 278 275 275
296 295 294 294 293 293 291 291 290 289 289 289 288 287 288 290 292 291 290 291 289 288 287 286 285 285 285 285 285 284 284 284 282 282 281 279 277 276
302 301 299 299 298 297 295 295 294 294 293 292 291 291 289 289 291 291 291 290 291 290 289 287 286 286 287 287 287 286 286 286 285 283 281 279 278 277
304 301 301 301 300 299 298 297 295 295 294 294 294 293 291 291 292 293 292 291 291 292 291 290 289 288 287 287 287 287 286 286 285 284 282 280 279 277
308 305 303 302 302 301 299 297 296 296 297 298 298 296 295 295 294 294 294 294 292 292 291 292 291 290 290 290 290 288 287 286 285 284 283 281 279 279
312 309 306 304 303 303 300 299 298 298 298 299 300 300 298 297 297 296 295 295 294 294 294 293 293 292 291 290 290 289 288 287 286 284 284 283 282 283
315 316 314 311 310 309 307 305 304 303 303 302 301 300 299 298 298 298 297 296 295 295 294 294 293 293 292 291 290 290 289 288 287 286 286 286 285 284
316 316 316 315 313 311 311 310 308 307 306 305 303 301 300 299 298 297 297 297 296 295 294 294 294 293 292 291 291 291 291 291 290 289 289 287 285 284
315 315 315 315 313 312 311 310 310 309 309 308 306 306 306 305 303 301 301 301 300 298 297 296 296 295 295 295 295 295 295 293 292 291 289 288 288 287
315 314 314 314 313 311 309 308 308 309 309 308 308 308 308 307 306 305 303 303 302 301 299 298 298 298 298 297 296 295 295 293 291 290 289 289 289 287
313 312 313 313 312 309 308 308 309 308 308 308 308 308 308 308 308 307 305 304 303 302 301 299 299 298 296 295 296 295 295 294 293 292 291 290 289 288
311 312 312 311 311 310 309 309 309 309 308 308 308 308 308 308 308 308 307 305 304 303 302 301 300 299 298 297 296 296 296 295 294 294 293 292 290 289
310 311 311 311 310 310 309 309 309 309 308 308 308 308 308 307 307 307 306 305 305 304 303 302 301 300 299 298 298 297 297 297 297 296 295 294 293 291
310 311 311 310 310 310 310 309 309 309 308 308 308 308 308 308 307 307 307 307 306 306 305 303 302 301 300 299 299 299 299 299 298 298 297 296 295 294
309 310 310 309 309 309 310 310 310 310 310 309 309 309 309 309 308 308 308 307 307 307 306 305 304 303 302 301 301 300 300 300 299 299 298 298 298 297
309 309 309 309 310 310 310 310 311 311 311 311 311 311 310 309 309 309 309 308 307 307 307 306 305 304 304 303 303 303 303 302 302 301 301 300 300 300
309 310 310 310 310 310 310 311 311 311 311 311 311 311 311 310 310 310 310 309 308 308 308 307 306 306 305 305 304 305 306 305 304 304 305 304 303 303
309 310 311 311 310 310 310 310 311 311 311 311 311 311 311 311 311 310 310 310 310 310 310 310 309 308 307 307 307 307 307 307 306 307 308 309 309 309
308 309 310 310 310 309 310 310 310 311 311 312 312 312 312 312 313 313 312 312 312 312 312 312 311 310 310 309 309 308 308 308 308 308 309 311 312 312
Height
5876 5876 5876 5876 5875 5875 5875 5875 5875 5875 5874 5873 5872 5872 5871 5870 5870 5869 5868 5867 5866 5866 5865 5864 5863 5862 5861 5860 5859 5858 5857 5856 5855 5854 5853 5852 5851 5850
5871 5871 5871 5871 5870 5870 5870 5870 5869 5869 5868 5867 5866 5866 5865 5864 5864 5863 5862 5861 5860 5859 5858 5857 5855 5854 5853 5852 5851 5849 5848 5847 5846 5845 5844 5843 5842 5841
5867 5866 5866 5865 5865 5865 5864 5864 5863 5863 5863 5862 5860 5860 5859 5858 5857 5856 5855 5854 5853 5852 5850 5849 5848 5846 5845 5844 5842 5841 5840 5838 5837 5836 5834 5833 5832 5831
5863 5862 5861 5860 5860 5859 5859 5858 5858 5857 5857 5856 5855 5854 5853 5852 5850 5849 5848 5847 5846 5844 5842 5841 5839 5838 5837 5835 5833 5832 5830 5829 5827 5825 5824 5822 5821 5820
5859 5858 5857 5856 5855 5855 5854 5853 5852 5851 5851 5850 5849 5848 5847 5845 5844 5842 5841 5839 5838 5836 5834 5833 5831 5829 5827 5825 5823 5822 5820 5818 5816 5815 5812 5810 5809 5808
5855 5854 5852 5852 5851 5850 5849 5848 5847 5845 5844 5843 5843 5842 5840 5839 5837 5835 5833 5832 5830 5828 5826 5824 5822 5820 5818 5816 5814 5812 5810 5807 5805 5803 5801 5799 5797 5796
5851 5849 5848 5847 5846 5845 5844 5842 5841 5840 5839 5838 5836 5835 5833 5832 5830 5828 5826 5824 5822 5820 5818 5816 5813 5811 5809 5806 5804 5802 5799 5797 5794 5791 5789 5787 5786 5784
5847 5845 5844 5843 5842 5840 5839 5837 5836 5835 5833 5832 5830 5828 5826 5824 5822 5820 5818 5816 5814 5811 5809 5806 5804 5801 5799 5796 5794 5791 5788 5785 5783 5780 5778 5776 5774 5772
5843 5842 5840 5839 5837 5836 5834 5832 5830 5828 5827 5825 5823 5821 5819 5816 5814 5812 5809 5807 5804 5802 5799 5796 5793 5791 5788 5785 5783 5780 5777 5774 5772 5769 5766 5764 5762 5760
5840 5838 5836 5834 5832 5830 5829 5827 5824 5822 5820 5818 5816 5813 5811 5808 5806 5803 5800 5797 5795 5792 5789 5786 5783 5780 5777 5774 5772 5769 5766 5763 5761 5758 5755 5753 5751 5749
5836 5834 5831 5830 5827 5825 5823 5821 5818 5816 5813 5811 5808 5805 5803 5800 5797 5794 5791 5789 5786 5783 5779 5776 5773 5770 5767 5764 5761 5758 5755 5753 5750 5747 5744 5742 5740 5737
5832 5829 5827 5825 5822 5820 5817 5815 5812 5809 5807 5804 5801 5798 5795 5792 5788 5785 5782 5779 5776 5773 5769 5766 5763 5760 5757 5754 5751 5748 5745 5742 5739 5736 5733 5731 5728 5726
5827 5825 5822 5820 5817 5814 5811 5809 5806 5803 5800 5797 5794 5790 5787 5783 5780 5777 5773 5770 5766 5763 5760 5756 5753 5750 5747 5744 5740 5737 5734 5731 5728 5725 5722 5719 5717 5714
5823 5820 5817 5814 5811 5809 5806 5802 5799 5796 5793 5789 5786 5783 5779 5776 5772 5768 5764 5761 5757 5754 5750 5747 5744 5740 5737 5733 5730 5727 5723 5719 5716 5713 5710 5707 5704 5701
5817 5815 5812 5809 5806 5802 5799 5796 5793 5789 5785 5782 5779 5775 5771 5767 5764 5760 5756 5752 5748 5744 5740 5737 5733 5730 5726 5723 5719 5715 5712 5708 5705 5701 5698 5695 5692 5689
5812 5809 5806 5803 5799 5796 5792 5789 5786 5782 5778 5775 5771 5767 5763 5759 5755 5751 5746 5742 5739 5734 5730 5726 5722 5719 5715 5712 5708 5704 5701 5697 5693 5690 5686 5683 5680 5677
5805 5803 5799 5796 5793 5789 5786 5782 5778 5775 5771 5767 5763 5759 5754 5750 5746 5741 5737 5733 5729 5725 5721 5716 5712 5708 5704 5701 5697 5694 5690 5686 5682 5678 5675 5671 5668 5665
5799 5796 5793 5789 5786 5782 5779 5775 5771 5767 5762 5758 5754 5749 5745 5741 5736 5732 5728 5723 5719 5715 5711 5707 5703 5699 5695 5691 5687 5683 5679 5676 5672 5668 5664 5661 5658 5655
5792 5789 5785 5782 5778 5775 5771 5767 5762 5758 5753 5749 5745 5740 5736 5731 5727 5722 5718 5713 5709 5705 5701 5697 5693 5689 5685 5682 5678 5673 5670 5666 5662 5659 5655 5652 5649 5646
5785 5782 5778 5774 5771 5766 5762 5758 5754 5749 5745 5740 5736 5731 5727 5722 5718 5713 5708 5704 5700 5696 5692 5688 5683 5679 5676 5673 5669 5665 5661 5657 5654 5650 5647 5644 5640 5637
5778 5774 5770 5767 5763 5758 5754 5750 5745 5741 5736 5732 5727 5723 5718 5713 5708 5704 5699 5695 5691 5687 5683 5679 5675 5671 5667 5664 5661 5657 5653 5649 5646 5642 5639 5636 5633 5630
5770 5766 5762 5759 5754 5750 5746 5742 5737 5732 5728 5723 5718 5714 5709 5704 5700 5695 5691 5687 5683 5679 5675 5671 5667 5663 5659 5656 5653 5649 5646 5642 5639 5635 5632 5629 5626 5622
5762 5758 5754 5750 5746 5742 5738 5733 5729 5724 5719 5714 5710 5705 5700 5696 5691 5687 5683 5679 5675 5671 5667 5663 5660 5656 5652 5649 5646 5642 5639 5636 5633 5629 5626 5622 5619 5616